Location: Fauquembergues
(50.6005°N, 2.0987°E)
Time: 01:13:47
(UTC+00:00)

Daily predictions for brighter satellites

Satellite Brightness Start Highest point End
(mag) Time Altitude Azimuth Time Altitude Azimuth Time Altitude Azimuth
CZ-4 R/B 4.2 00:02:56 10° NNE 00:07:35 52° E 00:09:36 31° SSE
Landsat 4 3.7 00:05:47 10° NNE 00:09:36 74° ESE 00:10:43 43° S
Cosmos 1269 Rocket 4.2 00:07:29 25° SW 00:10:38 68° WNW 00:15:56 10° NNE
Cosmos 1441 Rocket 3.2 00:10:43 42° S 00:11:58 78° E 00:15:56 10° NNE
Lacrosse 5 2.0 00:10:40 32° SSW 00:12:47 55° SE 00:17:45 10° ENE
SL-4 R/B 3.4 00:19:37 11° WNW 00:19:37 11° WNW 00:19:48 10° NW
SL-16 R/B 3.8 00:13:00 10° ESE 00:18:36 36° ENE 00:24:14 10° N
BREEZE-M DEB (TANK) 4.1 00:09:40 10° WSW 00:19:26 45° S 00:23:07 10° E
Meteor 1-4 Rocket 3.0 00:16:24 10° N 00:20:06 58° ENE 00:21:27 34° SE
CZ-4C R/B 4.0 00:17:17 10° WNW 00:23:18 28° WSW 00:26:34 21° SSW
Cosmos 1607 4.0 00:20:03 19° SW 00:24:40 81° NW 00:31:03 10° NE
Cosmos 1943 4.1 00:19:53 13° WSW 00:24:44 45° NW 00:30:11 10° NNE
Cosmos 1666 Rocket 3.5 00:23:50 35° SSW 00:25:36 77° W 00:29:59 10° N
Meteor 2-20 Rocket 4.5 00:20:55 10° NNW 00:27:03 71° W 00:30:28 28° S
Iridium 4 Rocket 3.8 00:24:13 27° SSE 00:27:20 66° E 00:32:35 10° N
Cosmos 1697 Rocket 4.3 00:25:38 10° NNW 00:30:41 32° NE 00:35:43 10° ESE
NOSS 2-1 (C) 4.2 00:26:14 10° NW 00:31:08 89° SW 00:38:02 10° SE
Helios 1B rocket 2.5 00:27:21 10° NNE 00:31:30 70° ESE 00:33:01 37° S
USA 267 3.8 00:32:12 26° S 00:34:55 36° SW 00:40:53 10° WNW
Cosmos 1703 Rocket 4.5 00:30:57 10° N 00:35:15 44° ENE 00:38:06 19° SE
NOSS 2-1 (D) 4.2 00:30:58 10° NW 00:35:55 85° SW 00:42:56 10° SE
Helios 1A 4.3 00:38:50 23° WSW 00:39:59 26° W 00:43:30 10° NW
SeaSat 1 4.5 00:39:26 10° ENE 00:42:28 16° ESE 00:45:02 11° SE
SL-4 R/B 3.6 00:43:34 11° W 00:45:16 17° NW 00:47:08 10° N
CZ-2D R/B 3.5 00:40:57 10° NE 00:45:34 29° E 00:49:08 15° SE
Cosmos 1833 Rocket 4.5 00:44:54 12° SE 00:48:12 20° E 00:52:10 10° NE
Cosmos 1184 Rocket 3.2 00:49:58 38° SSE 00:50:49 51° E 00:54:00 10° NNE
Meteor 1-25 Rocket 4.2 00:47:42 27° S 00:50:51 75° E 00:56:25 10° NNE
Cosmos 1656 4.0 00:45:27 10° NNW 00:50:53 64° ENE 00:56:17 10° SE
Cosmos 1238 Rocket 3.3 00:50:04 29° SSW 00:52:47 78° W 00:57:16 10° N
COSMOS 2406 4.4 00:49:39 19° SSE 00:52:51 32° ESE 00:57:53 10° NE
Cosmos 405 Rocket 3.7 00:52:44 25° SE 00:54:21 37° E 00:57:52 10° NNE
Cosmos 1459 Rocket 4.4 00:52:48 20° SSE 00:56:54 54° E 01:02:54 10° NNE
Meteor 1-29 2.8 00:55:55 10° NNE 00:59:20 89° NNW 01:00:26 41° SSW
Cosmos 220 Rocket 4.5 00:55:10 10° NNW 00:59:24 57° ENE 01:02:54 14° SE
SL-24 DEB 4.3 00:56:00 10° N 01:00:45 81° E 01:03:20 27° S
Meteor 1-20 Rocket 4.2 00:58:23 27° SSW 01:01:35 89° W 01:07:20 10° NNE
BREEZE-M DEB (TANK) 4.3 00:57:20 10° W 01:02:18 84° S 01:25:13 10° E
Cosmos 724 4.2 00:59:21 25° SW 01:02:56 85° SE 01:08:49 10° NE
Meteor 1-18 Rocket 4.2 01:03:08 10° NNW 01:09:00 81° W 01:12:51 22° S
Cosmos 1515 3.6 01:09:59 10° N 01:13:51 86° E 01:15:49 28° SSE
CZ-4C R/B 3.5 01:11:32 20° SSE 01:14:02 62° ENE 01:17:39 10° N
GRACE-FO 1 4.5 01:11:49 10° N 01:15:29 87° W 01:17:02 33° S
GRACE-FO 2 4.5 01:12:13 10° N 01:15:52 86° W 01:17:25 33° S
Okean 1-7 3.0 01:12:46 10° NNW 01:17:12 84° W 01:19:46 25° S
Cosmos 1470 Rocket 4.1 01:16:51 25° SW 01:19:09 48° WNW 01:23:31 10° N
Meteor 1-19 Rocket 4.2 01:17:45 10° NNW 01:23:24 71° W 01:27:06 21° S
ADEOS II 3.8 01:19:26 10° NE 01:23:46 25° E 01:28:05 10° SSE
NPP 4.3 01:19:39 10° NNE 01:24:55 50° E 01:28:51 17° S
Resurs 1-4 Rocket 2.4 01:23:20 10° NNE 01:28:38 62° ESE 01:32:21 20° S
ISS -3.7 01:26:59 10° WNW 01:30:21 80° N 01:33:43 10° E
Cosmos 1241 Rocket 4.5 01:24:44 10° NW 01:31:10 78° SW 01:37:41 10° SSE
Abrixas rocket 2.0 01:35:13 31° WSW 01:36:14 49° S 01:39:02 10° ESE
Cosmos 2251 Rocket 4.2 01:32:39 18° SW 01:36:18 46° WNW 01:41:23 10° NNE
UNK 3.7 01:33:05 19° S 01:36:22 78° WSW 01:41:02 10° NNW
Tsikada Rocket 4.4 01:31:43 10° N 01:38:08 68° ENE 01:44:32 10° SSE
ATLAS 5 CENTAUR R/B 2.9 01:35:12 10° NW 01:40:33 58° NE 01:46:50 10° ESE
Gbstr 26 Del rocket 2.8 01:38:50 10° WNW 01:42:51 74° SSW 01:47:36 10° ESE
USA 215 4.0 01:37:14 10° ENE 01:43:35 53° N 01:49:55 10° W
Cosmos 2369 3.8 01:40:19 10° NNW 01:46:05 85° ENE 01:51:50 10° SSE
Cosmos 1980 Rocket 2.9 01:41:11 10° NNW 01:46:50 57° NE 01:52:26 10° SE
Cosmos 2061 Rocket 4.1 01:41:58 18° S 01:46:57 85° E 01:53:17 10° N
Cosmos 2173 Rocket 4.1 01:43:03 20° SSW 01:47:39 70° WNW 01:53:57 10° N
SL-8 R/B 4.0 01:46:36 20° SW 01:49:40 48° SSE 01:54:18 10° E
Okean 3 3.4 01:51:11 10° NNW 01:55:24 82° W 01:58:48 15° S
Lacrosse 5 2.5 01:50:50 10° W 01:55:50 54° NNW 02:00:51 10° ENE
Cosmos 2016 Rocket 4.0 01:53:41 17° SSW 01:58:33 82° W 02:04:50 10° N
Meteor 1-5 Rocket 4.3 01:55:49 16° S 02:00:24 85° E 02:06:19 10° NNE
BREEZE-M DEB (TANK) 3.6 01:58:56 13° W 02:01:07 33° SSW 02:07:33 10° SE
SL-16 R/B 2.8 01:57:01 15° S 02:02:02 52° W 02:08:10 10° NNW
Meteor 2-4 Rocket 4.0 01:57:50 10° NNW 02:03:39 56° W 02:08:33 14° S
Cosmos 1536 3.4 02:02:53 13° S 02:06:20 56° E 02:10:19 10° NNE
Cosmos 2278 3.8 02:00:46 10° NNW 02:06:33 84° ENE 02:12:16 10° SSE
Cosmos 1864 Rocket 4.5 02:02:20 15° SSW 02:07:27 83° W 02:13:38 10° N
Cosmos 1869 Rocket 3.9 02:04:44 19° SSW 02:07:37 52° WNW 02:11:54 10° N
SL-16 R/B 4.2 02:03:52 10° NNW 02:08:58 33° NE 02:14:02 10° ESE
Meteor 1-11 Rocket 3.9 02:04:11 13° S 02:09:07 72° E 02:14:39 10° NNE
Cosmos 1190 Rocket 4.0 02:06:38 17° SSW 02:10:38 82° WNW 02:15:57 10° NNE
Cosmos 1437 Rocket 3.6 02:07:14 10° NNW 02:10:57 36° W 02:13:22 18° SSW
H-2A R/B 4.3 02:07:52 10° ESE 02:11:29 26° ENE 02:15:03 10° N
Cosmos 921 Rocket 3.0 02:07:06 10° NNW 02:11:33 88° WSW 02:15:53 10° SSE
Cosmos 1954 Rocket 4.3 02:08:19 15° S 02:12:41 67° ESE 02:17:59 10° NNE
Cosmos 1697 Rocket 2.8 02:09:28 10° NW 02:15:00 57° WSW 02:20:28 10° S
Cosmos 2221 Rocket 3.7 02:11:10 10° NNW 02:15:33 61° W 02:19:26 13° S
SeaSat 1 2.5 02:15:38 10° NNE 02:20:36 89° ESE 02:24:48 15° SSW
Cosmos 1378 Rocket 4.1 02:17:20 10° N 02:21:43 59° ENE 02:26:05 10° SSE
CZ-4B R/B 3.5 02:19:42 10° NNE 02:24:49 77° WNW 02:29:10 13° SSW
IRS-1D 3.5 02:19:53 10° NNE 02:24:53 88° ESE 02:29:30 12° SSW
CZ-2D R/B 2.6 02:20:42 10° N 02:25:52 51° WNW 02:30:27 13° SW
Cosmos 2082 Rocket 2.5 02:22:31 12° SSW 02:27:42 66° ESE 02:33:22 10° NE
Cosmos 1763 Rocket 3.9 02:23:18 10° NNW 02:28:34 69° ENE 02:33:51 10° SSE
COBE Rocket 3.9 02:24:49 10° S 02:29:50 73° WSW 02:34:43 10° NNW
Aureole 1 Rocket 3.7 02:26:02 15° SSW 02:30:05 76° WNW 02:36:27 10° NNE
Cosmos 405 Rocket 4.4 02:27:52 11° WSW 02:30:29 21° WNW 02:33:23 10° NNW
Cosmos 1833 Rocket 2.7 02:26:35 14° SW 02:31:28 79° WNW 02:37:08 10° NNE
Meteor 1-23 Rocket 4.3 02:26:33 10° NNW 02:32:19 85° W 02:38:06 10° S
ERS-2 3.9 02:32:18 10° SE 02:35:38 35° ENE 02:38:58 10° N
Cosmos 1500 4.4 02:33:19 13° SW 02:36:04 28° WNW 02:39:24 10° N
Cosmos 1140 Rocket 3.9 02:32:12 13° SW 02:36:45 56° WNW 02:41:56 10° NNE
Meteor 1-28 Rocket 3.3 02:33:08 10° SSE 02:36:50 77° ENE 02:40:35 10° N
COSMOS 2406 3.7 02:31:43 12° SW 02:36:55 54° NW 02:42:36 10° NNE
CBERS-1 4.1 02:32:53 10° NNE 02:38:02 75° WNW 02:43:03 11° SSW
Cosmos 468 Rocket 4.1 02:34:28 10° NNW 02:39:50 88° WSW 02:45:09 10° SSE
Cosmos 407 Rocket 4.3 02:35:25 12° SW 02:40:11 44° WNW 02:45:19 10° NNE
Cosmos 2360 4.5 02:36:12 10° NW 02:41:42 48° WSW 02:47:10 10° S
Cosmos 1271 Rocket 3.9 02:41:37 10° N 02:45:17 44° ENE 02:48:53 10° SSE
Cosmos 2233 Rocket 4.1 02:39:44 10° SSW 02:45:55 69° WNW 02:52:11 10° N
Cosmos 1674 Rocket 3.6 02:42:27 10° NNW 02:46:46 63° W 02:51:02 10° S
Cosmos 2322 Rocket 3.4 02:45:00 10° NNW 02:50:29 48° NE 02:55:58 10° SE
ATLAS 5 CENTAUR R/B 3.9 02:47:01 10° WNW 02:50:50 31° SW 03:01:09 10° SSE
Cosmos 1666 3.3 02:48:04 12° SW 02:51:22 40° WNW 02:54:57 10° N
Cosmos 1850 Rocket 4.5 02:47:25 10° S 02:52:40 61° ESE 02:57:56 10° NNE
Cosmos 1066 Rocket 4.5 02:48:14 10° NNW 02:53:59 59° W 02:59:43 10° S
Cosmos 841 Rocket 4.0 02:51:02 10° NNW 02:56:11 64° ENE 03:01:20 10° SE
Cosmos 540 Rocket 4.1 02:51:16 10° NNW 02:56:23 61° ENE 03:01:29 10° SE
ARIANE 5 R/B 2.6 02:52:02 10° NNE 02:57:09 81° ESE 03:02:17 10° SSW
IRS-1C 4.2 02:52:43 10° NNE 02:58:05 79° WNW 03:03:24 10° SSW
Cosmos 676 Rocket 4.4 02:57:04 10° SW 03:02:13 53° WNW 03:07:26 10° NNE
ADEOS II 2.4 02:58:39 10° N 03:03:48 56° WNW 03:08:56 10° SW
Cosmos 1818 3.6 02:59:44 10° NW 03:05:09 63° SW 03:10:31 10° SSE
Cosmos 1544 3.9 03:01:57 10° S 03:05:24 50° E 03:08:55 10° NNE
ISS -3.3 03:03:51 10° W 03:07:00 38° SSW 03:10:09 10° SE
Cosmos 1743 2.7 03:03:28 10° SSW 03:07:17 83° W 03:11:09 10° N
SL-08 R/B 3.7 03:03:23 10° S 03:07:57 46° W 03:12:39 10° NNW
Resurs 1-4 Rocket 3.5 03:03:48 10° N 03:08:05 25° WNW 03:12:20 10° WSW
Spot 4 Rocket 4.3 03:04:07 10° NNE 03:09:18 76° ESE 03:14:27 10° S
Cosmos 1741 Rocket 4.1 03:05:18 10° SSW 03:10:30 79° ESE 03:15:46 10° NNE
Cosmos 1733 Rocket 3.8 03:07:02 10° SW 03:11:02 36° WNW 03:15:04 10° N
Abrixas rocket 3.3 03:09:03 10° WSW 03:11:17 20° SSW 03:13:31 10° SSE
Cosmos 1908 Rocket 3.6 03:07:17 10° S 03:11:47 85° WNW 03:16:17 10° N
Nadezhda 4 Rocket 4.4 03:06:15 10° N 03:12:35 72° ENE 03:18:55 10° SSE
Landsat 5 3.4 03:10:36 10° SSE 03:14:29 82° ENE 03:18:21 10° NNW
CENTAUR R/B 4.3 03:12:11 10° SSE 03:16:56 25° ESE 03:22:17 10° ENE
